Location: Izdebnik
(49.8699°N, 19.7619°E)
Time: 21:07:34
(UTC+01:00)

ISS - Pass Details

Date: 28 January 2019
Orbit: 403 x 411 km, 51.6° (Epoch: 18 February)

Event Time Altitude Azimuth Distance (km) Brightness Sun altitude
Rises 19:08:08 0° 271° (W) 2,337 1.4 -25.6°
Reaches altitude 10° 19:10:14 10° 275° (W) 1,478 0.0 -26.0°
Enters shadow 19:11:51 26° 283° (WNW) 853 -1.6 -26.2°
